This demonstration page uses our WeatherBlox Daily Observations layout. Learn more.

Hourly Observations for October 19, 2015

Temp ( °F °C ) Dew Point ( °F °C ) Humidity (%) Winds ( mph kmh ) Pressure ( in mb ) Visibility ( mi km ) Precip ( " mm )
12:15 am 00:15 Clear 67 19.2 43 6.1 43 43 S 17 28 29.91 1013 10 16.0934 0 0
12:35 am 00:35 Clear 66 18.8 42 5.7 42 42 S 16 26 29.91 1013 10 16.0934 0 0
12:55 am 00:55 Clear 65 18.5 42 5.5 43 43 S 16 26 29.91 1013 10 16.0934 0 0
1:15 am 01:15 Clear 65 18.1 41 5.1 43 43 S 17 28 29.91 1013 10 16.0934 0 0
1:35 am 01:35 Clear 64 18 41 4.8 42 42 S 16 26 29.91 1013 10 16.0934 0 0
1:55 am 01:55 Clear 64 17.6 40 4.5 42 42 S 15 24 29.91 1013 10 16.0934 0 0
2:15 am 02:15 Clear 63 17.3 40 4.3 42 42 S 14 22 29.91 1013 10 16.0934 0 0
2:35 am 02:35 Clear 63 17 40 4.2 43 43 S 13 20 29.88 1012 10 16.0934 0 0
2:55 am 02:55 Clear 62 16.7 39 4.1 43 43 S 16 26 29.88 1012 10 16.0934 0 0
3:15 am 03:15 Clear 62 16.5 39 4 44 44 S 13 20 29.88 1012 10 16.0934 0 0
3:35 am 03:35 Clear 62 16.5 39 4.1 44 44 S 14 22 29.88 1012 10 16.0934 0 0
3:55 am 03:55 Clear 61 16.2 39 4.1 45 45 S 12 19 29.88 1012 10 16.0934 0 0
4:15 am 04:15 Clear 60 15.8 40 4.2 46 46 S 13 20 29.88 1012 10 16.0934 0 0
4:35 am 04:35 Clear 60 15.5 40 4.3 47 47 S 13 20 29.88 1012 10 16.0934 0 0
4:55 am 04:55 Clear 60 15.4 40 4.3 48 48 S 12 19 29.91 1013 10 16.0934 0 0
5:15 am 05:15 Clear 59 14.8 40 4.4 50 50 S 10 17 29.91 1013 10 16.0934 0 0
5:35 am 05:35 Clear 58 14.5 40 4.4 51 51 S 12 19 29.91 1013 10 16.0934 0 0
5:55 am 05:55 Clear 58 14.5 40 4.5 51 51 S 14 22 29.88 1012 10 16.0934 0 0
6:15 am 06:15 Clear 58 14.5 40 4.5 51 51 S 13 20 29.88 1012 10 16.0934 0 0
6:35 am 06:35 Clear 57 14 40 4.5 53 53 S 13 20 29.88 1012 10 16.0934 0 0
6:55 am 06:55 Clear 57 13.9 40 4.6 54 54 S 13 20 29.88 1012 10 16.0934 0 0
7:15 am 07:15 Clear 57 13.7 40 4.6 54 54 S 10 17 29.88 1012 10 16.0934 0 0
7:35 am 07:35 Clear 56 13.5 41 4.8 56 56 S 7 11 29.88 1012 10 16.0934 0 0
7:55 am 07:55 Sunny 56 13.2 41 4.8 57 57 S 8 13 29.88 1012 10 16.0934 0 0
8:15 am 08:15 Sunny 56 13.5 41 5 57 57 S 10 17 29.88 1012 10 16.0934 0 0
8:35 am 08:35 Sunny 57 14 41 5 55 55 S 13 20 29.88 1012 10 16.0934 0 0
8:55 am 08:55 Sunny 58 14.5 41 5.2 54 54 S 13 20 29.88 1012 10 16.0934 0 0
9:15 am 09:15 Sunny 60 15.5 42 5.5 52 52 S 13 20 29.85 1011 10 16.0934 0 0
9:35 am 09:35 Sunny 62 16.5 42 5.5 48 48 S 12 19 29.85 1011 10 16.0934 0 0
9:55 am 09:55 Sunny 63 17.3 42 5.7 47 47 S 15 24 29.85 1011 10 16.0934 0 0
10:15 am 10:15 Sunny 65 18.3 44 6.4 46 46 S 17 28 29.85 1011 10 16.0934 0 0
10:35 am 10:35 Sunny 66 19 44 6.6 45 45 S 16 26 29.83 1010 10 16.0934 0 0
10:55 am 10:55 Sunny 67 19.7 44 6.9 44 44 SSW 16 26 29.83 1010 10 16.0934 0 0
11:15 am 11:15 Sunny 68 20.2 45 7.1 43 43 SSW 14 22 29.83 1010 10 16.0934 0 0
11:35 am 11:35 Sunny 70 21.2 45 7.4 41 41 SSW 12 19 29.83 1010 10 16.0934 0 0
11:55 am 11:55 Sunny 71 21.6 45 7.4 40 40 SSW 14 22 29.83 1010 10 16.0934 0 0
12:15 pm 12:15 Sunny 72 22.2 45 7.4 39 39 SSW 16 26 29.77 1008 10 16.0934 0 0
12:35 pm 12:35 Sunny 73 23 46 7.5 37 37 S 15 24 29.77 1008 10 16.0934 0 0
12:55 pm 12:55 Sunny 74 23.6 45 7.2 35 35 SSW 16 26 29.77 1008 10 16.0934 0 0
1:15 pm 13:15 Sunny 75 24.1 45 7.4 34 34 SSW 14 22 29.77 1008 10 16.0934 0 0
1:35 pm 13:35 Sunny 77 25 46 7.5 33 33 S 15 24 29.74 1007 10 16.0934 0 0
1:55 pm 13:55 Sunny 77 25.1 46 7.5 33 33 SSW 14 22 29.74 1007 10 16.0934 0 0
2:15 pm 14:15 Sunny 78 25.7 46 7.6 32 32 S 13 20 29.71 1006 10 16.0934 0 0
2:35 pm 14:35 Sunny 79 26.1 46 7.7 31 31 SSW 13 20 29.68 1005 10 16.0934 0 0
2:55 pm 14:55 Sunny 80 26.4 46 7.7 31 31 S 16 26 29.68 1005 10 16.0934 0 0
3:15 pm 15:15 Sunny 80 26.7 46 7.6 30 30 SSW 13 20 29.68 1005 10 16.0934 0 0
3:35 pm 15:35 Sunny 81 27.2 46 8 30 30 SSW 15 24 29.68 1005 10 16.0934 0 0
3:55 pm 15:55 Sunny 82 27.5 46 8 29 29 SSW 15 24 29.68 1005 10 16.0934 0 0
4:15 pm 16:15 Sunny 82 27.7 47 8.2 29 29 SSW 15 24 29.68 1005 10 16.0934 0 0
4:35 pm 16:35 Sunny 82 27.5 47 8.3 30 30 S 16 26 29.65 1004 10 16.0934 0 0
4:55 pm 16:55 Sunny 82 28 47 8.6 30 30 S 17 28 29.65 1004 10 16.0934 0 0
5:15 pm 17:15 Sunny 82 27.8 47 8.4 29 29 SSW 17 28 29.65 1004 10 16.0934 0 0
5:35 pm 17:35 Sunny 82 27.6 47 8.3 30 30 SSW 15 24 29.65 1004 10 16.0934 0 0
5:55 pm 17:55 Sunny 81 27.3 47 8.3 30 30 SSW 13 20 29.65 1004 10 16.0934 0 0
6:15 pm 18:15 Sunny 80 26.7 47 8.2 31 31 S 9 15 29.65 1004 10 16.0934 0 0
6:35 pm 18:35 Sunny 78 25.8 47 8.3 33 33 S 8 13 29.65 1004 10 16.0934 0 0
6:55 pm 18:55 Clear 75 24 47 8.4 37 37 S 6 9 29.68 1005 10 16.0934 0 0
7:15 pm 19:15 Clear 72 22.3 47 8.6 42 42 S 6 9 29.68 1005 7 11.26538 0 0
7:35 pm 19:35 Clear 71 21.9 48 9 44 44 S 6 9 29.71 1006 10 16.0934 0 0
7:55 pm 19:55 Clear 71 21.6 49 9.4 46 46 S 7 11 29.71 1006 10 16.0934 0 0
8:15 pm 20:15 Clear 70 21 49 9.5 48 48 S 8 13 29.74 1007 10 16.0934 0 0
8:35 pm 20:35 Clear 71 21.4 49 9.7 47 47 S 9 15 29.74 1007 10 16.0934 0 0
8:55 pm 20:55 Clear 71 21.7 48 8.9 44 44 S 10 17 29.71 1006 10 16.0934 0 0
9:15 pm 21:15 Clear 71 21.6 47 8.5 43 43 S 12 19 29.71 1006 10 16.0934 0 0
9:35 pm 21:35 Clear 70 21.2 47 8.5 44 44 S 10 17 29.74 1007 10 16.0934 0 0
9:55 pm 21:55 Clear 69 20.3 47 8.6 47 47 S 8 13 29.74 1007 10 16.0934 0 0
10:15 pm 22:15 Clear 68 20.1 47 8.5 47 47 S 9 15 29.74 1007 10 16.0934 0 0
10:35 pm 22:35 Clear 67 19.7 47 8.6 49 49 S 10 17 29.77 1008 10 16.0934 0 0
10:55 pm 22:55 Clear 67 19.4 47 8.5 49 49 S 9 15 29.77 1008 10 16.0934 0 0
11:15 pm 23:15 Clear 66 19 47 8.5 51 51 S 9 15 29.77 1008 10 16.0934 0 0
11:35 pm 23:35 Clear 65 18.6 47 8.5 52 52 S 9 15 29.77 1008 10 16.0934 0 0
11:55 pm 23:55 Clear 65 18.3 47 8.5 53 53 S 8 13 29.77 1008 10 16.0934 0 0

Powered by AerisWeather